• în România
  • Lista ţărilor
  • Pe 7 zile
  • Temperatura apei
  • Hartă satelitară
  • Meteo pe hartă
  • Widget-uri
  • user-avatar
    Intrare

    Meteo pe oră la Hmeli

    Astăzi, 20 Aprilie, Vineri

    Timp Temperatura Precipitaţii Vânt Presiune Umiditate
    00:00 +5°C° 0 mm 3 m/s 746 mmHg 86%
    01:00 +5°C° 0 mm 3 m/s 747 mmHg 89%
    02:00 +4°C° 0 mm 3 m/s 747 mmHg 92%
    03:00 +4°C° 0 mm 3 m/s 747 mmHg 93%
    04:00 +4°C° 0 mm 3 m/s 747 mmHg 95%
    05:00 +4°C° 0 mm 3 m/s 747 mmHg 96%
    06:00 +5°C° 0 mm 3 m/s 748 mmHg 94%
    07:00 +5°C° 0 mm 3 m/s 748 mmHg 91%
    08:00 +7°C° 0 mm 3 m/s 748 mmHg 88%
    09:00 +8°C° 0 mm 3 m/s 748 mmHg 84%
    10:00 +9°C° 0 mm 3 m/s 748 mmHg 79%
    11:00 +10°C° 0 mm 3 m/s 748 mmHg 74%
    12:00 +11°C° 0 mm 3 m/s 748 mmHg 69%
    13:00 +13°C° 0 mm 2 m/s 748 mmHg 63%
    14:00 +14°C° 0 mm 2 m/s 748 mmHg 57%
    15:00 +14°C° 0 mm 2 m/s 747 mmHg 57%
    16:00 +14°C° 0 mm 2 m/s 746 mmHg 57%
    17:00 +15°C° 0 mm 2 m/s 746 mmHg 56%
    18:00 +13°C° 0 mm 2 m/s 745 mmHg 64%
    19:00 +10°C° 0 mm 2 m/s 745 mmHg 71%
    20:00 +9°C° 0 mm 2 m/s 744 mmHg 78%
    21:00 +9°C° 0 mm 2 m/s 743 mmHg 77%
    22:00 +9°C° 0 mm 3 m/s 743 mmHg 76%
    23:00 +9°C° 0 mm 3 m/s 742 mmHg 75%

    Mâine, 21 Aprilie, Sâmbătă

    Timp Temperatura Precipitaţii Vânt Presiune Umiditate
    00:00 +9°C° 0 mm 3 m/s 741 mmHg 79%
    01:00 +8°C° 0 mm 4 m/s 740 mmHg 83%
    02:00 +8°C° 0 mm 4 m/s 740 mmHg 86%
    03:00 +8°C° 0 mm 4 m/s 739 mmHg 88%
    04:00 +8°C° 0 mm 4 m/s 738 mmHg 90%
    05:00 +8°C° 0 mm 4 m/s 737 mmHg 91%
    06:00 +9°C° 0 mm 5 m/s 735 mmHg 87%
    07:00 +10°C° 0 mm 5 m/s 734 mmHg 84%
    08:00 +11°C° 0 mm 6 m/s 733 mmHg 80%
    09:00 +11°C° 0,2 mm 6 m/s 733 mmHg 80%
    10:00 +11°C° 0,2 mm 6 m/s 732 mmHg 80%
    11:00 +13°C° 0,2 mm 6 m/s 731 mmHg 80%
    12:00 +11°C° 0,3 mm 7 m/s 731 mmHg 74%
    13:00 +11°C° 0,3 mm 8 m/s 731 mmHg 68%
    14:00 +11°C° 0,3 mm 9 m/s 731 mmHg 62%
    15:00 +10°C° 0 mm 8 m/s 732 mmHg 63%
    16:00 +9°C° 0 mm 7 m/s 733 mmHg 63%
    17:00 +8°C° 0 mm 6 m/s 733 mmHg 63%
    18:00 +8°C° 0,1 mm 6 m/s 734 mmHg 66%
    19:00 +7°C° 0,1 mm 6 m/s 734 mmHg 69%
    20:00 +7°C° 0,1 mm 5 m/s 734 mmHg 72%
    21:00 +6°C° 0 mm 5 m/s 734 mmHg 73%
    22:00 +6°C° 0 mm 5 m/s 735 mmHg 75%
    23:00 +5°C° 0 mm 5 m/s 735 mmHg 76%

    Poimâine, 22 Aprilie, Duminică

    Timp Temperatura Precipitaţii Vânt Presiune Umiditate
    00:00 +5°C° 0,1 mm 5 m/s 735 mmHg 77%
    01:00 +5°C° 0,1 mm 5 m/s 735 mmHg 78%
    02:00 +5°C° 0,1 mm 5 m/s 735 mmHg 78%
    03:00 +5°C° 0,1 mm 5 m/s 736 mmHg 80%
    04:00 +3°C° 0,1 mm 5 m/s 736 mmHg 81%
    05:00 +4°C° 0,1 mm 4 m/s 736 mmHg 82%
    06:00 +4°C° 0,1 mm 4 m/s 736 mmHg 81%
    07:00 +5°C° 0,1 mm 4 m/s 736 mmHg 80%
    08:00 +5°C° 0,1 mm 4 m/s 737 mmHg 79%
    09:00 +5°C° 0,1 mm 4 m/s 737 mmHg 78%
    10:00 +6°C° 0,1 mm 4 m/s 737 mmHg 76%
    11:00 +6°C° 0,1 mm 4 m/s 737 mmHg 74%
    12:00 +6°C° 0,2 mm 4 m/s 737 mmHg 72%
    13:00 +7°C° 0,2 mm 4 m/s 737 mmHg 70%
    14:00 +7°C° 0,2 mm 4 m/s 738 mmHg 67%
    15:00 +7°C° 0,3 mm 4 m/s 738 mmHg 69%
    16:00 +7°C° 0,3 mm 4 m/s 738 mmHg 70%
    17:00 +7°C° 0,3 mm 3 m/s 738 mmHg 72%
    18:00 +5°C° 0,1 mm 3 m/s 738 mmHg 77%
    19:00 +5°C° 0,1 mm 2 m/s 739 mmHg 82%
    20:00 +4°C° 0,1 mm 2 m/s 739 mmHg 87%
    21:00 +3°C° 0 mm 2 m/s 740 mmHg 88%
    22:00 +4°C° 0 mm 1 m/s 740 mmHg 88%
    23:00 +3°C° 0 mm 1 m/s 740 mmHg 89%

    23 Aprilie, Luni

    Timp Temperatura Precipitaţii Vânt Presiune Umiditate
    00:00 +3°C° 0 mm 1 m/s 741 mmHg 89%
    01:00 +2°C° 0 mm 1 m/s 741 mmHg 89%
    02:00 +2°C° 0 mm 1 m/s 741 mmHg 89%
    03:00 +1°C° 0 mm 1 m/s 742 mmHg 87%
    04:00 +1°C° 0 mm 1 m/s 742 mmHg 86%
    05:00 0°C° 0 mm 1 m/s 742 mmHg 85%
    06:00 +2°C° 0 mm 1 m/s 742 mmHg 77%
    07:00 +4°C° 0 mm 1 m/s 743 mmHg 68%
    08:00 +5°C° 0 mm 1 m/s 743 mmHg 59%
    09:00 +5°C° 0 mm 2 m/s 743 mmHg 53%
    10:00 +6°C° 0 mm 2 m/s 743 mmHg 47%
    11:00 +8°C° 0 mm 2 m/s 743 mmHg 40%
    12:00 +8°C° 0 mm 2 m/s 743 mmHg 38%
    13:00 +9°C° 0 mm 2 m/s 743 mmHg 36%
    14:00 +9°C° 0 mm 2 m/s 743 mmHg 34%
    15:00 +9°C° 0 mm 2 m/s 743 mmHg 35%
    16:00 +9°C° 0 mm 2 m/s 742 mmHg 37%
    17:00 +8°C° 0 mm 2 m/s 742 mmHg 38%
    18:00 +7°C° 0 mm 2 m/s 742 mmHg 44%
    19:00 +6°C° 0 mm 1 m/s 742 mmHg 51%
    20:00 +4°C° 0 mm 1 m/s 742 mmHg 58%
    21:00 +3°C° 0 mm 1 m/s 742 mmHg 60%
    22:00 +3°C° 0 mm 1 m/s 742 mmHg 63%
    23:00 +1°C° 0 mm 2 m/s 742 mmHg 65%

    24 Aprilie, Marţi

    Timp Temperatura Precipitaţii Vânt Presiune Umiditate
    00:00 +1°C° 0 mm 2 m/s 742 mmHg 67%
    01:00 -1°C° 0 mm 2 m/s 742 mmHg 69%
    02:00 -1°C° 0 mm 2 m/s 741 mmHg 70%
    03:00 -1°C° 0 mm 2 m/s 741 mmHg 70%
    04:00 -1°C° 0 mm 2 m/s 741 mmHg 70%
    05:00 -1°C° 0 mm 3 m/s 741 mmHg 70%
    06:00 +1°C° 0 mm 3 m/s 741 mmHg 65%
    07:00 +3°C° 0 mm 3 m/s 740 mmHg 60%
    08:00 +4°C° 0 mm 3 m/s 740 mmHg 55%
    09:00 +6°C° 0 mm 4 m/s 740 mmHg 52%
    10:00 +7°C° 0 mm 4 m/s 739 mmHg 48%
    11:00 +10°C° 0 mm 4 m/s 739 mmHg 45%
    12:00 +10°C° 0 mm 4 m/s 739 mmHg 44%
    13:00 +11°C° 0 mm 4 m/s 739 mmHg 43%
    14:00 +11°C° 0 mm 4 m/s 738 mmHg 42%
    15:00 +11°C° 0,1 mm 4 m/s 738 mmHg 47%
    16:00 +10°C° 0,1 mm 3 m/s 738 mmHg 52%
    17:00 +9°C° 0,1 mm 3 m/s 737 mmHg 57%
    18:00 +8°C° 0,1 mm 3 m/s 737 mmHg 63%
    19:00 +7°C° 0,1 mm 3 m/s 737 mmHg 69%
    20:00 +6°C° 0,1 mm 2 m/s 737 mmHg 76%
    21:00 +6°C° 0,1 mm 2 m/s 737 mmHg 78%
    22:00 +6°C° 0,1 mm 2 m/s 737 mmHg 81%
    23:00 +5°C° 0,1 mm 3 m/s 737 mmHg 84%

    25 Aprilie, Miercuri

    Timp Temperatura Precipitaţii Vânt Presiune Umiditate
    00:00 +6°C° 0,1 mm 2 m/s 737 mmHg 86%
    01:00 +6°C° 0,1 mm 2 m/s 737 mmHg 88%
    02:00 +5°C° 0,1 mm 2 m/s 737 mmHg 90%
    03:00 +5°C° 0,1 mm 2 m/s 737 mmHg 91%
    04:00 +5°C° 0,1 mm 2 m/s 737 mmHg 92%
    05:00 +5°C° 0,1 mm 2 m/s 737 mmHg 93%
    06:00 +6°C° 0,1 mm 2 m/s 737 mmHg 91%
    07:00 +6°C° 0,1 mm 2 m/s 737 mmHg 90%
    08:00 +6°C° 0,1 mm 2 m/s 737 mmHg 88%
    09:00 +7°C° 0,1 mm 2 m/s 737 mmHg 85%
    10:00 +7°C° 0,1 mm 3 m/s 738 mmHg 81%
    11:00 +8°C° 0,1 mm 3 m/s 738 mmHg 78%
    12:00 +9°C° 0 mm 3 m/s 737 mmHg 73%
    13:00 +10°C° 0 mm 3 m/s 737 mmHg 69%
    14:00 +11°C° 0 mm 3 m/s 737 mmHg 64%
    15:00 +11°C° 0 mm 3 m/s 737 mmHg 63%
    16:00 +11°C° 0 mm 3 m/s 736 mmHg 62%
    17:00 +11°C° 0 mm 4 m/s 735 mmHg 62%
    18:00 +10°C° 0,3 mm 4 m/s 735 mmHg 68%
    19:00 +10°C° 0,3 mm 4 m/s 734 mmHg 74%
    20:00 +8°C° 0,3 mm 4 m/s 734 mmHg 80%
    21:00 +8°C° 1,3 mm 4 m/s 733 mmHg 84%
    22:00 +8°C° 1,3 mm 5 m/s 733 mmHg 87%
    23:00 +8°C° 1,3 mm 5 m/s 732 mmHg 91%
    Arată mai mult